TimeEST,TemperatureF,Dew PointF,Humidity,Sea Level PressureIn,VisibilityMPH,Wind Direction,Wind SpeedMPH,Gust SpeedMPH,PrecipitationIn,Events,Conditions,WindDirDegrees,DateUTC
12:15 AM,55.0,51.1,86,29.93,10.0,WSW,6.9,-,N/A,,Clear,240,2013-02-12 05:15:00
12:35 AM,54.7,50.2,85,29.93,10.0,WSW,6.9,-,N/A,,Clear,240,2013-02-12 05:35:00
12:55 AM,54.5,49.1,82,29.92,10.0,WSW,6.9,-,N/A,,Clear,240,2013-02-12 05:55:00
1:15 AM,54.1,48.2,80,29.93,10.0,WSW,6.9,-,N/A,,Clear,240,2013-02-12 06:15:00
1:35 AM,53.8,46.8,77,29.94,10.0,West,5.8,-,N/A,,Clear,260,2013-02-12 06:35:00
1:55 AM,53.6,44.8,72,29.94,10.0,WSW,5.8,-,N/A,,Clear,250,2013-02-12 06:55:00
2:15 AM,52.9,43.7,71,29.95,10.0,WSW,6.9,-,N/A,,Clear,250,2013-02-12 07:15:00
2:35 AM,52.3,42.1,68,29.96,10.0,West,9.2,-,N/A,,Clear,260,2013-02-12 07:35:00
2:55 AM,52.2,39.6,62,29.96,10.0,West,6.9,-,N/A,,Clear,260,2013-02-12 07:55:00
3:15 AM,51.8,36.7,56,29.96,10.0,West,5.8,-,N/A,,Clear,260,2013-02-12 08:15:00
3:35 AM,50.9,35.4,55,29.96,10.0,West,6.9,-,N/A,,Clear,260,2013-02-12 08:35:00
3:55 AM,50.0,35.2,57,29.98,10.0,West,4.6,-,N/A,,Clear,260,2013-02-12 08:55:00
4:15 AM,49.5,34.0,55,29.98,10.0,WSW,6.9,-,N/A,,Clear,250,2013-02-12 09:15:00
4:35 AM,48.6,32.2,53,29.98,10.0,West,4.6,-,N/A,,Clear,260,2013-02-12 09:35:00
4:55 AM,48.2,29.8,49,29.97,10.0,WNW,3.5,-,N/A,,Clear,300,2013-02-12 09:55:00
5:15 AM,47.3,29.8,51,29.98,10.0,WNW,3.5,-,N/A,,Clear,300,2013-02-12 10:15:00
5:35 AM,45.5,30.0,55,29.99,10.0,Calm,Calm,-,N/A,,Clear,0,2013-02-12 10:35:00
5:55 AM,45.5,29.8,54,29.99,10.0,West,3.5,-,N/A,,Clear,280,2013-02-12 10:55:00
6:15 AM,44.8,30.0,56,30.00,10.0,Calm,Calm,-,N/A,,Clear,0,2013-02-12 11:15:00
6:35 AM,43.7,30.0,59,30.01,10.0,Calm,Calm,-,N/A,,Clear,0,2013-02-12 11:35:00
6:55 AM,43.7,29.1,57,30.01,10.0,West,3.5,-,N/A,,Clear,260,2013-02-12 11:55:00
7:15 AM,42.4,28.2,57,30.01,10.0,Calm,Calm,-,N/A,,Clear,0,2013-02-12 12:15:00
7:35 AM,41.0,28.6,61,30.02,10.0,SW,3.5,-,N/A,,Clear,230,2013-02-12 12:35:00
7:55 AM,42.4,27.5,56,30.02,10.0,Calm,Calm,-,N/A,,Clear,0,2013-02-12 12:55:00
8:15 AM,44.4,31.6,61,30.03,10.0,Calm,Calm,-,N/A,,Clear,0,2013-02-12 13:15:00
8:35 AM,46.6,30.2,53,30.04,10.0,West,3.5,-,N/A,,Clear,260,2013-02-12 13:35:00
8:55 AM,48.0,26.8,44,30.05,10.0,West,4.6,-,N/A,,Clear,280,2013-02-12 13:55:00
9:15 AM,49.3,26.8,42,30.05,10.0,West,5.8,-,N/A,,Clear,280,2013-02-12 14:15:00
9:35 AM,50.0,24.3,37,30.05,10.0,NW,9.2,17.3,N/A,,Clear,310,2013-02-12 14:35:00
9:55 AM,49.5,24.6,38,30.05,10.0,West,9.2,-,N/A,,Clear,270,2013-02-12 14:55:00
10:15 AM,50.9,23.5,34,30.06,10.0,West,6.9,-,N/A,,Clear,270,2013-02-12 15:15:00
10:35 AM,52.7,24.4,33,30.07,10.0,West,8.1,-,N/A,,Clear,260,2013-02-12 15:35:00
10:55 AM,53.6,24.4,32,30.07,10.0,WSW,11.5,16.1,N/A,,Clear,250,2013-02-12 15:55:00
11:15 AM,53.8,23.9,31,30.07,10.0,WNW,4.6,-,N/A,,Clear,290,2013-02-12 16:15:00
11:35 AM,53.8,22.5,30,30.06,10.0,West,9.2,17.3,N/A,,Clear,260,2013-02-12 16:35:00
11:55 AM,54.9,23.7,30,30.06,10.0,West,11.5,-,N/A,,Clear,270,2013-02-12 16:55:00
12:15 PM,55.6,24.1,30,30.04,10.0,WNW,9.2,-,N/A,,Clear,290,2013-02-12 17:15:00
12:35 PM,56.1,24.4,29,30.03,10.0,West,9.2,-,N/A,,Clear,270,2013-02-12 17:35:00
12:55 PM,56.1,23.4,28,30.00,10.0,NW,5.8,-,N/A,,Clear,320,2013-02-12 17:55:00
1:15 PM,56.8,22.6,27,29.99,10.0,WNW,5.8,-,N/A,,Clear,290,2013-02-12 18:15:00
1:35 PM,57.4,23.4,27,29.99,10.0,West,4.6,-,N/A,,Clear,260,2013-02-12 18:35:00
1:55 PM,57.4,22.5,26,29.98,10.0,WSW,9.2,-,N/A,,Clear,250,2013-02-12 18:55:00
2:15 PM,58.5,23.9,26,29.97,10.0,SW,8.1,-,N/A,,Clear,220,2013-02-12 19:15:00
2:35 PM,57.9,23.5,27,29.97,10.0,SW,5.8,-,N/A,,Clear,230,2013-02-12 19:35:00
2:55 PM,57.9,22.1,25,29.98,10.0,West,4.6,-,N/A,,Clear,260,2013-02-12 19:55:00
3:15 PM,57.6,22.1,25,29.98,10.0,WSW,4.6,-,N/A,,Clear,250,2013-02-12 20:15:00
3:35 PM,57.4,23.0,27,29.98,10.0,West,4.6,-,N/A,,Clear,260,2013-02-12 20:35:00
3:55 PM,56.8,23.9,28,29.97,10.0,West,6.9,-,N/A,,Clear,270,2013-02-12 20:55:00
4:15 PM,56.3,25.2,30,29.97,10.0,Calm,Calm,-,N/A,,Clear,0,2013-02-12 21:15:00
4:35 PM,55.9,24.4,30,29.98,10.0,Calm,Calm,-,N/A,,Clear,0,2013-02-12 21:35:00
4:55 PM,55.2,25.5,32,29.99,10.0,WSW,3.5,-,N/A,,Clear,240,2013-02-12 21:55:00
5:15 PM,53.8,29.1,39,29.99,10.0,SW,3.5,-,N/A,,Clear,220,2013-02-12 22:15:00
5:35 PM,54.1,26.6,35,29.99,10.0,WSW,3.5,-,N/A,,Clear,240,2013-02-12 22:35:00
5:55 PM,53.4,27.9,37,29.98,10.0,Calm,Calm,-,N/A,,Clear,0,2013-02-12 22:55:00
6:15 PM,52.3,28.6,40,29.97,10.0,Calm,Calm,-,N/A,,Clear,0,2013-02-12 23:15:00
6:35 PM,51.1,31.3,47,29.98,10.0,Calm,Calm,-,N/A,,Clear,0,2013-02-12 23:35:00
6:55 PM,51.1,29.8,44,29.97,10.0,Calm,Calm,-,N/A,,Clear,0,2013-02-12 23:55:00
7:15 PM,49.6,32.0,51,29.98,10.0,Calm,Calm,-,N/A,,Clear,0,2013-02-13 00:15:00
7:35 PM,49.8,30.7,48,29.95,10.0,Calm,Calm,-,N/A,,Scattered Clouds,0,2013-02-13 00:35:00
7:55 PM,48.7,32.7,54,29.94,10.0,Calm,Calm,-,N/A,,Scattered Clouds,0,2013-02-13 00:55:00
8:15 PM,47.3,35.1,62,29.94,10.0,South,4.6,-,N/A,,Scattered Clouds,180,2013-02-13 01:15:00
8:35 PM,49.1,32.0,52,29.92,10.0,Calm,Calm,-,N/A,,Mostly Cloudy,0,2013-02-13 01:35:00
9:15 PM,48.2,33.6,57,29.97,10.0,SW,6.9,-,N/A,,Mostly Cloudy,220,2013-02-13 02:15:00
9:35 PM,48.7,32.5,54,29.99,10.0,Calm,Calm,-,N/A,,Overcast,0,2013-02-13 02:35:00
9:55 PM,48.9,31.5,51,29.97,10.0,Calm,Calm,-,N/A,,Overcast,0,2013-02-13 02:55:00
10:15 PM,51.1,28.0,41,29.97,10.0,Calm,Calm,-,N/A,,Overcast,0,2013-02-13 03:15:00
10:35 PM,52.2,25.9,36,29.97,10.0,WNW,8.1,-,N/A,,Overcast,300,2013-02-13 03:35:00
10:55 PM,50.5,29.8,45,29.98,10.0,SSW,5.8,-,N/A,,Overcast,200,2013-02-13 03:55:00
11:15 PM,50.4,29.7,45,29.97,10.0,SSW,3.5,-,N/A,,Overcast,200,2013-02-13 04:15:00
11:35 PM,50.0,30.0,46,29.94,10.0,Calm,Calm,-,N/A,,Overcast,0,2013-02-13 04:35:00
11:55 PM,50.7,26.4,39,29.95,10.0,WSW,4.6,-,N/A,Rain,Light Rain,250,2013-02-13 04:55:00